Overview Statistics Trail Chart Weather Telemetry Raw packets
 

This is the latest recevied weather packets stored in our database for station/object LU3MCV-13. If no packets are shown the sender has not sent any weather packets the latest 10 day(s).

<< 17 18 19 20 21 22 23 >>
Time Temp. Humidity Pressure Rain* Wind** Luminosity Snow
1777628515 12.78° C 29% 926.6 hPa - - - -
1777627615 12.78° C 30% 926.5 hPa - - - -
1777626715 12.78° C 30% 926.5 hPa - - - -
1777625816 12.78° C 30% 926.5 hPa - - - -
1777624915 12.22° C 30% 926.2 hPa - - - -
1777624016 12.78° C 30% 926.1 hPa - - - -
1777623115 12.78° C 29% 926.1 hPa - - - -
1777622215 12.78° C 29% 926 hPa - - - -
1777621315 12.78° C 29% 925.9 hPa - - - -
1777620415 12.78° C 28% 926 hPa - - - -
1777619515 12.78° C 28% 926 hPa - - - -
1777618615 12.78° C 28% 926.1 hPa - - - -
1777617715 12.78° C 27% 926.2 hPa - - - -
1777616815 13.89° C 26% 926 hPa - - - -
1777615915 13.89° C 26% 926.1 hPa - - - -
1777615015 13.89° C 26% 926.1 hPa - - - -
1777614115 13.89° C 25% 926.1 hPa - - - -
1777613215 15° C 23% 926.3 hPa - - - -
1777612315 15° C 24% 926.3 hPa - - - -
1777611415 15° C 23% 926.6 hPa - - - -
1777610515 15° C 24% 926.6 hPa - - - -
1777609615 15° C 23% 926.5 hPa - - - -
1777608715 15° C 22% 926.6 hPa - - - -
1777607815 15° C 22% 926.6 hPa - - - -
1777606015 17.22° C 20% 926.5 hPa - - - -

* Rain since midnight (hover to see other rain measurements)
** Current wind speed in m/s (hover to see current wind gust speed)